Overview Statistics Trail Chart Weather Telemetry Raw packets
 

This is the latest recevied weather packets stored in our database for station/object W0CHP-13. If no packets are shown the sender has not sent any weather packets the latest 10 day(s).

<< 43 44 45 46 47 48 49 >>
Time Temp. Humidity Pressure Rain* Wind** Luminosity Snow
1788037817 28.33° C 63% 1009.2 hPa 0 mm - 378 W/m² -
1788037221 27.22° C 64% 1009.2 hPa 0 mm - 448 W/m² -
1788036617 26.67° C 66% 1009.2 hPa 0 mm - 439 W/m² -
1788036018 26.11° C 67% 1009.9 hPa 0 mm - 283 W/m² -
1788035416 26.11° C 67% 1009.6 hPa 0 mm - 321 W/m² -
1788034818 26.67° C 66% 1009.9 hPa 0 mm - 288 W/m² -
1788034217 26.67° C 66% 1010 hPa 0 mm - 470 W/m² -
1788033621 26.67° C 66% 1009.9 hPa 0 mm - 600 W/m² -
1788033017 26.11° C 68% 1010.3 hPa 0 mm - 600 W/m² -
1788032415 26.11° C 69% 1010.3 hPa 0 mm - 574 W/m² -
1788031822 25.56° C 71% 1010.6 hPa 0 mm - 621 W/m² -
1788031217 25° C 73% 1010.7 hPa 0 mm - 667 W/m² -
1788030619 24.44° C 76% 1011 hPa 0 mm - 691 W/m² -
1788030017 23.89° C 76% 1011.3 hPa 0 mm - 654 W/m² -
1788029418 23.33° C 80% 1011.3 hPa 0 mm - 604 W/m² -
1788028816 22.22° C 82% 1011.6 hPa 0 mm - 704 W/m² -
1788028219 22.22° C 83% 1011.7 hPa 0 mm - 255 W/m² -
1788027617 22.22° C 84% 1012 hPa 0 mm - 559 W/m² -
1788027015 21.11° C 88% 1012 hPa 0 mm - 275 W/m² -
1788026417 20.56° C 88% 1012.1 hPa 0 mm - 184 W/m² -
1788025818 20.56° C 89% 1012.3 hPa 0.51 mm - 193 W/m² -
1788025218 20° C 90% 1012.4 hPa 2.03 mm - 89 W/m² -
1788024616 20° C 90% 1012.7 hPa 2.29 mm - 103 W/m² -
1788024015 19.44° C 91% 1012.7 hPa 2.79 mm - 113 W/m² -
1788023417 19.44° C 91% 1013 hPa 2.79 mm - 81 W/m² -

* Rain latest hour (hover to see other rain measurements)
** Current wind speed in m/s (hover to see current wind gust speed)